Total_Precipitation_Accumulation
0.00 0.00 0.00 0.00 0.00 0.00 0.00 0.00 0.00 0.00 0.00 0.00 0.00 0.01 0.05 0.08 0.09 0.09 0.12 0.17 0.20 0.25 0.34 0.49 0.72 0.99 1.46 2.14 2.79 3.05 2.84 2.23 1.82 1.57 1.43 1.25 1.09 0.99 0.92 0.84 0.75 0.65 0.62 0.53
0.00 0.00 0.00 0.00 0.00 0.00 0.00 0.00 0.00 0.00 0.00 0.00 0.00 0.02 0.04 0.06 0.07 0.06 0.08 0.11 0.15 0.24 0.41 0.70 1.05 1.46 1.90 2.22 2.42 2.36 2.01 1.44 1.10 0.89 0.75 0.62 0.54 0.53 0.52 0.50 0.49 0.50 0.50 0.48
0.00 0.00 0.00 0.00 0.00 0.00 0.00 0.00 0.00 0.00 0.00 0.00 0.01 0.02 0.03 0.05 0.07 0.09 0.10 0.14 0.24 0.42 0.78 1.33 1.80 2.00 2.00 1.94 1.68 1.28 0.93 0.67 0.57 0.44 0.36 0.27 0.23 0.22 0.23 0.25 0.28 0.31 0.31 0.30
0.00 0.00 0.00 0.00 0.00 0.00 0.00 0.00 0.00 0.00 0.00 0.00 0.01 0.05 0.07 0.10 0.12 0.14 0.21 0.28 0.39 0.62 1.05 1.54 1.84 1.80 1.58 1.27 0.87 0.57 0.43 0.35 0.30 0.25 0.24 0.22 0.18 0.18 0.19 0.20 0.22 0.23 0.22 0.22
0.01 0.01 0.01 0.00 0.00 0.00 0.00 0.00 0.00 0.00 0.00 0.00 0.01 0.05 0.09 0.13 0.14 0.14 0.18 0.22 0.32 0.56 0.80 0.91 0.93 0.88 0.72 0.52 0.46 0.43 0.35 0.35 0.34 0.29 0.25 0.23 0.19 0.18 0.19 0.20 0.21 0.24 0.25 0.23
0.01 0.01 0.01 0.01 0.01 0.01 0.01 0.00 0.01 0.01 0.02 0.07 0.06 0.08 0.15 0.26 0.27 0.17 0.11 0.15 0.30 0.42 0.45 0.39 0.30 0.26 0.24 0.22 0.23 0.24 0.24 0.32 0.37 0.36 0.31 0.27 0.23 0.20 0.18 0.17 0.18 0.20 0.22 0.25
0.03 0.02 0.01 0.02 0.02 0.01 0.01 0.01 0.01 0.02 0.09 0.17 0.11 0.08 0.23 0.40 0.28 0.12 0.05 0.06 0.12 0.24 0.33 0.35 0.30 0.23 0.19 0.15 0.13 0.13 0.13 0.16 0.19 0.22 0.23 0.23 0.23 0.21 0.18 0.17 0.14 0.16 0.17 0.20
0.06 0.04 0.01 0.01 0.02 0.02 0.03 0.02 0.01 0.02 0.02 0.04 0.05 0.16 0.33 0.34 0.17 0.07 0.02 0.02 0.07 0.15 0.21 0.24 0.22 0.17 0.14 0.10 0.08 0.06 0.06 0.07 0.07 0.08 0.10 0.12 0.15 0.16 0.18 0.21 0.17 0.16 0.18 0.19
0.01 0.01 0.01 0.02 0.03 0.03 0.03 0.02 0.01 0.02 0.01 0.03 0.10 0.23 0.27 0.22 0.15 0.06 0.02 0.02 0.03 0.08 0.10 0.10 0.09 0.07 0.06 0.05 0.05 0.04 0.03 0.03 0.03 0.03 0.05 0.06 0.09 0.12 0.14 0.16 0.17 0.16 0.21 0.20
0.00 0.00 0.00 0.01 0.02 0.03 0.02 0.02 0.01 0.02 0.02 0.03 0.07 0.26 0.36 0.25 0.15 0.04 0.02 0.02 0.03 0.05 0.06 0.06 0.05 0.04 0.03 0.02 0.02 0.02 0.02 0.02 0.01 0.01 0.02 0.02 0.04 0.07 0.09 0.10 0.12 0.14 0.16 0.18
0.00 0.00 0.00 0.01 0.02 0.02 0.02 0.01 0.02 0.02 0.02 0.03 0.03 0.14 0.17 0.13 0.06 0.02 0.01 0.01 0.02 0.03 0.03 0.03 0.02 0.02 0.02 0.01 0.01 0.02 0.02 0.02 0.02 0.01 0.01 0.01 0.03 0.04 0.06 0.10 0.12 0.13 0.12 0.12
0.00 0.00 0.00 0.01 0.03 0.03 0.02 0.02 0.03 0.03 0.02 0.01 0.02 0.07 0.07 0.06 0.03 0.01 0.00 0.00 0.00 0.00 0.01 0.01 0.01 0.01 0.01 0.01 0.01 0.02 0.02 0.02 0.02 0.02 0.01 0.01 0.01 0.02 0.03 0.06 0.09 0.10 0.11 0.11
0.00 0.00 0.00 0.01 0.04 0.03 0.03 0.03 0.03 0.02 0.02 0.01 0.06 0.11 0.05 0.02 0.01 0.00 0.00 0.00 0.00 0.00 0.00 0.00 0.00 0.01 0.01 0.01 0.02 0.02 0.02 0.01 0.01 0.01 0.01 0.00 0.00 0.00 0.01 0.03 0.05 0.06 0.08 0.10
0.00 0.00 0.00 0.01 0.01 0.02 0.03 0.04 0.04 0.02 0.01 0.01 0.03 0.10 0.02 0.00 0.00 0.00 0.00 0.00 0.00 0.00 0.00 0.00 0.00 0.00 0.00 0.01 0.01 0.01 0.00 0.00 0.00 0.00 0.00 0.01 0.01 0.01 0.01 0.01 0.02 0.03 0.05 0.07
0.00 0.00 0.00 0.00 0.01 0.02 0.03 0.05 0.03 0.01 0.00 0.02 0.02 0.03 0.01 0.00 0.00 0.00 0.00 0.00 0.00 0.00 0.00 0.00 0.00 0.01 0.01 0.01 0.01 0.02 0.02 0.02 0.03 0.04 0.04 0.04 0.04 0.05 0.05 0.05 0.04 0.04 0.05 0.06
0.00 0.00 0.00 0.00 0.01 0.01 0.03 0.06 0.02 0.00 0.00 0.00 0.00 0.00 0.00 0.00 0.01 0.02 0.02 0.01 0.02 0.02 0.03 0.04 0.04 0.05 0.04 0.04 0.04 0.03 0.03 0.03 0.04 0.04 0.04 0.03 0.04 0.04 0.04 0.04 0.04 0.04 0.05 0.08
0.00 0.00 0.00 0.00 0.00 0.01 0.05 0.03 0.01 0.00 0.00 0.00 0.01 0.02 0.02 0.03 0.05 0.08 0.11 0.12 0.13 0.12 0.10 0.07 0.05 0.03 0.02 0.01 0.01 0.00 0.00 0.00 0.01 0.02 0.02 0.02 0.03 0.04 0.04 0.04 0.05 0.06 0.08 0.11
0.00 0.00 0.00 0.00 0.00 0.03 0.04 0.00 0.00 0.00 0.00 0.01 0.03 0.05 0.09 0.12 0.17 0.23 0.27 0.21 0.11 0.06 0.03 0.01 0.00 0.00 0.00 0.00 0.00 0.00 0.00 0.00 0.01 0.01 0.02 0.03 0.04 0.05 0.07 0.08 0.10 0.12 0.14 0.16
0.00 0.00 0.00 0.00 0.00 0.02 0.01 0.00 0.01 0.02 0.02 0.04 0.10 0.15 0.18 0.18 0.13 0.09 0.06 0.03 0.01 0.01 0.00 0.00 0.00 0.00 0.00 0.00 0.00 0.00 0.00 0.00 0.01 0.03 0.05 0.08 0.09 0.11 0.14 0.16 0.19 0.22 0.24 0.23
0.00 0.00 0.00 0.00 0.00 0.01 0.01 0.02 0.06 0.07 0.12 0.13 0.12 0.09 0.05 0.02 0.01 0.00 0.00 0.00 0.00 0.00 0.00 0.00 0.00 0.00 0.00 0.00 0.00 0.00 0.01 0.01 0.02 0.04 0.07 0.10 0.15 0.20 0.22 0.25 0.29 0.31 0.32 0.31
0.00 0.00 0.00 0.00 0.00 0.00 0.00 0.01 0.03 0.05 0.07 0.03 0.01 0.01 0.00 0.00 0.00 0.00 0.00 0.00 0.00 0.00 0.00 0.00 0.00 0.00 0.01 0.00 0.01 0.02 0.03 0.04 0.05 0.06 0.08 0.10 0.16 0.24 0.27 0.30 0.34 0.37 0.38 0.38
0.00 0.00 0.00 0.00 0.01 0.01 0.00 0.00 0.00 0.00 0.00 0.00 0.00 0.00 0.00 0.00 0.00 0.00 0.00 0.00 0.00 0.00 0.00 0.00 0.00 0.00 0.01 0.01 0.03 0.06 0.07 0.07 0.09 0.11 0.12 0.13 0.19 0.26 0.28 0.36 0.39 0.43 0.46 0.48
0.00 0.00 0.00 0.00 0.01 0.00 0.00 0.00 0.00 0.00 0.00 0.00 0.00 0.00 0.00 0.00 0.00 0.00 0.00 0.00 0.00 0.00 0.00 0.00 0.00 0.00 0.01 0.02 0.06 0.10 0.11 0.12 0.14 0.15 0.16 0.18 0.22 0.32 0.45 0.48 0.44 0.47 0.50 0.50
0.00 0.00 0.00 0.00 0.00 0.00 0.00 0.00 0.00 0.00 0.00 0.00 0.00 0.00 0.00 0.00 0.00 0.00 0.00 0.00 0.00 0.00 0.00 0.00 0.01 0.02 0.03 0.04 0.06 0.10 0.14 0.18 0.21 0.21 0.19 0.21 0.26 0.38 0.60 0.70 0.62 0.56 0.55 0.56
0.00 0.00 0.00 0.00 0.00 0.00 0.00 0.00 0.00 0.00 0.00 0.00 0.00 0.00 0.00 0.00 0.00 0.00 0.00 0.00 0.00 0.00 0.01 0.01 0.03 0.05 0.05 0.06 0.08 0.12 0.17 0.24 0.27 0.25 0.22 0.23 0.28 0.40 0.59 0.73 0.72 0.64 0.62 0.63
0.00 0.00 0.00 0.00 0.00 0.00 0.00 0.00 0.00 0.00 0.00 0.00 0.00 0.00 0.00 0.00 0.00 0.00 0.00 0.00 0.01 0.01 0.03 0.04 0.06 0.08 0.09 0.11 0.14 0.16 0.21 0.29 0.33 0.31 0.27 0.28 0.31 0.38 0.56 0.76 0.82 0.68 0.57 0.55